When you browse on this site, cookies collect data to enhance your experience and personalize the content and advertising you see.
Visit our Privacy Policy to learn more. By continuing to use the site, you agree to this use of cookies and data.
  • In Hungary
  • List of Countries
  • For 7 days
  • Water Temperature
  • Satellite Maps
  • Weather Map
  • News
  • Weather Widgets
  • user-avatar
    Login

    Hourly Weather Maidstone

    Today, 21 February, Thursday

    Time Temperature Precipitation Wind Pressure Humidity
    00:00 +7°C° 0 mm 3 mps 765 mmHg 92%
    01:00 +6°C° 0 mm 4 mps 765 mmHg 92%
    02:00 +6°C° 0 mm 4 mps 765 mmHg 93%
    03:00 +6°C° 0 mm 4 mps 765 mmHg 93%
    04:00 +6°C° 0 mm 4 mps 765 mmHg 93%
    05:00 +6°C° 0 mm 4 mps 765 mmHg 93%
    06:00 +7°C° 0 mm 3 mps 766 mmHg 94%
    07:00 +7°C° 0 mm 4 mps 766 mmHg 92%
    08:00 +7°C° 0 mm 4 mps 766 mmHg 91%
    09:00 +8°C° 0 mm 4 mps 767 mmHg 89%
    10:00 +10°C° 0 mm 4 mps 767 mmHg 86%
    11:00 +11°C° 0 mm 4 mps 767 mmHg 84%
    12:00 +12°C° 0 mm 4 mps 768 mmHg 81%
    13:00 +12°C° 0 mm 4 mps 768 mmHg 80%
    14:00 +13°C° 0 mm 4 mps 768 mmHg 79%
    15:00 +13°C° 0 mm 4 mps 768 mmHg 78%
    16:00 +12°C° 0 mm 3 mps 768 mmHg 83%
    17:00 +10°C° 0 mm 3 mps 769 mmHg 88%
    18:00 +9°C° 0 mm 2 mps 769 mmHg 93%
    19:00 +9°C° 0 mm 2 mps 769 mmHg 93%
    20:00 +8°C° 0 mm 2 mps 770 mmHg 93%
    21:00 +8°C° 0 mm 2 mps 770 mmHg 93%
    22:00 +8°C° 0 mm 2 mps 771 mmHg 93%
    23:00 +7°C° 0 mm 2 mps 771 mmHg 92%

    Tomorrow, 22 February, Friday

    Time Temperature Precipitation Wind Pressure Humidity
    00:00 +8°C° 0 mm 1 mps 771 mmHg 91%
    01:00 +8°C° 0 mm 1 mps 772 mmHg 90%
    02:00 +8°C° 0 mm 1 mps 772 mmHg 89%
    03:00 +8°C° 0 mm 1 mps 772 mmHg 88%
    04:00 +8°C° 0 mm 1 mps 772 mmHg 87%
    05:00 +8°C° 0 mm 1 mps 772 mmHg 86%
    06:00 +8°C° 0 mm 1 mps 773 mmHg 85%
    07:00 +9°C° 0 mm 1 mps 773 mmHg 83%
    08:00 +8°C° 0 mm 2 mps 773 mmHg 81%
    09:00 +9°C° 0 mm 2 mps 774 mmHg 79%
    10:00 +12°C° 0 mm 2 mps 774 mmHg 76%
    11:00 +12°C° 0 mm 3 mps 774 mmHg 72%
    12:00 +13°C° 0 mm 3 mps 774 mmHg 68%
    13:00 +13°C° 0 mm 3 mps 774 mmHg 67%
    14:00 +14°C° 0 mm 3 mps 773 mmHg 67%
    15:00 +14°C° 0 mm 3 mps 773 mmHg 66%
    16:00 +12°C° 0 mm 3 mps 773 mmHg 71%
    17:00 +12°C° 0 mm 2 mps 773 mmHg 76%
    18:00 +10°C° 0 mm 2 mps 773 mmHg 80%
    19:00 +9°C° 0 mm 2 mps 773 mmHg 82%
    20:00 +9°C° 0 mm 3 mps 773 mmHg 84%
    21:00 +9°C° 0 mm 3 mps 773 mmHg 85%
    22:00 +9°C° 0 mm 3 mps 773 mmHg 88%
    23:00 +9°C° 0 mm 3 mps 773 mmHg 90%

    Day after tomorrow, 23 February, Saturday

    Time Temperature Precipitation Wind Pressure Humidity
    00:00 +9°C° 0 mm 3 mps 773 mmHg 93%
    01:00 +9°C° 0 mm 3 mps 773 mmHg 93%
    02:00 +9°C° 0 mm 3 mps 773 mmHg 94%
    03:00 +8°C° 0 mm 4 mps 773 mmHg 95%
    04:00 +8°C° 0 mm 3 mps 772 mmHg 95%
    05:00 +8°C° 0 mm 3 mps 772 mmHg 95%
    06:00 +8°C° 0 mm 3 mps 772 mmHg 94%
    07:00 +7°C° 0 mm 4 mps 773 mmHg 90%
    08:00 +8°C° 0 mm 4 mps 773 mmHg 86%
    09:00 +8°C° 0 mm 4 mps 773 mmHg 82%
    10:00 +10°C° 0 mm 4 mps 773 mmHg 78%
    11:00 +11°C° 0 mm 4 mps 773 mmHg 73%
    12:00 +12°C° 0 mm 4 mps 773 mmHg 69%
    13:00 +13°C° 0 mm 4 mps 772 mmHg 68%
    14:00 +13°C° 0 mm 4 mps 772 mmHg 67%
    15:00 +13°C° 0 mm 4 mps 772 mmHg 66%
    16:00 +12°C° 0 mm 3 mps 772 mmHg 71%
    17:00 +10°C° 0 mm 3 mps 772 mmHg 76%
    18:00 +9°C° 0 mm 3 mps 772 mmHg 81%
    19:00 +9°C° 0 mm 3 mps 772 mmHg 81%
    20:00 +8°C° 0 mm 2 mps 772 mmHg 81%
    21:00 +8°C° 0 mm 2 mps 773 mmHg 81%
    22:00 +8°C° 0 mm 2 mps 773 mmHg 80%
    23:00 +7°C° 0 mm 2 mps 773 mmHg 80%

    24 February, Sunday

    Time Temperature Precipitation Wind Pressure Humidity
    00:00 +7°C° 0 mm 2 mps 773 mmHg 80%
    01:00 +7°C° 0 mm 2 mps 773 mmHg 79%
    02:00 +6°C° 0 mm 2 mps 773 mmHg 78%
    03:00 +6°C° 0 mm 2 mps 773 mmHg 78%
    04:00 +6°C° 0 mm 2 mps 773 mmHg 79%
    05:00 +5°C° 0 mm 2 mps 773 mmHg 79%
    06:00 +6°C° 0 mm 1 mps 772 mmHg 80%
    07:00 +6°C° 0 mm 2 mps 773 mmHg 77%
    08:00 +7°C° 0 mm 2 mps 773 mmHg 74%
    09:00 +7°C° 0 mm 2 mps 774 mmHg 70%
    10:00 +9°C° 0 mm 2 mps 774 mmHg 65%
    11:00 +10°C° 0 mm 2 mps 774 mmHg 60%
    12:00 +12°C° 0 mm 2 mps 774 mmHg 55%
    13:00 +12°C° 0 mm 2 mps 773 mmHg 54%
    14:00 +12°C° 0 mm 2 mps 773 mmHg 54%
    15:00 +13°C° 0 mm 1 mps 773 mmHg 53%
    16:00 +11°C° 0 mm 1 mps 773 mmHg 58%
    17:00 +10°C° 0 mm 1 mps 773 mmHg 63%
    18:00 +8°C° 0 mm 1 mps 774 mmHg 67%
    19:00 +8°C° 0 mm 1 mps 774 mmHg 67%
    20:00 +7°C° 0 mm 1 mps 774 mmHg 67%
    21:00 +7°C° 0 mm 1 mps 774 mmHg 66%
    22:00 +7°C° 0 mm 1 mps 774 mmHg 66%
    23:00 +7°C° 0 mm 1 mps 775 mmHg 65%

    25 February, Monday

    Time Temperature Precipitation Wind Pressure Humidity
    00:00 +6°C° 0 mm 1 mps 775 mmHg 64%
    01:00 +6°C° 0 mm 1 mps 774 mmHg 64%
    02:00 +6°C° 0 mm 1 mps 774 mmHg 64%
    03:00 +6°C° 0 mm 1 mps 774 mmHg 64%
    04:00 +6°C° 0 mm 1 mps 774 mmHg 65%
    05:00 +6°C° 0 mm 1 mps 774 mmHg 65%
    06:00 +6°C° 0 mm 1 mps 775 mmHg 66%
    07:00 +6°C° 0 mm 2 mps 775 mmHg 66%
    08:00 +7°C° 0 mm 2 mps 775 mmHg 66%
    09:00 +8°C° 0 mm 2 mps 775 mmHg 66%
    10:00 +9°C° 0 mm 2 mps 775 mmHg 63%
    11:00 +12°C° 0 mm 2 mps 775 mmHg 59%
    12:00 +12°C° 0 mm 3 mps 775 mmHg 55%
    13:00 +14°C° 0 mm 2 mps 775 mmHg 55%
    14:00 +14°C° 0 mm 2 mps 774 mmHg 55%
    15:00 +14°C° 0 mm 2 mps 774 mmHg 54%
    16:00 +13°C° 0 mm 2 mps 774 mmHg 60%
    17:00 +10°C° 0 mm 3 mps 774 mmHg 65%
    18:00 +8°C° 0 mm 3 mps 774 mmHg 70%
    19:00 +8°C° 0 mm 3 mps 774 mmHg 71%
    20:00 +7°C° 0 mm 3 mps 774 mmHg 71%
    21:00 +7°C° 0 mm 3 mps 774 mmHg 71%
    22:00 +7°C° 0 mm 2 mps 774 mmHg 73%
    23:00 +7°C° 0 mm 2 mps 773 mmHg 75%

    26 February, Tuesday

    Time Temperature Precipitation Wind Pressure Humidity
    00:00 +7°C° 0 mm 2 mps 773 mmHg 77%
    01:00 +7°C° 0 mm 2 mps 773 mmHg 79%
    02:00 +7°C° 0 mm 2 mps 773 mmHg 81%
    03:00 +7°C° 0 mm 2 mps 772 mmHg 84%
    04:00 +7°C° 0 mm 2 mps 772 mmHg 85%
    05:00 +7°C° 0 mm 2 mps 772 mmHg 87%
    06:00 +5°C° 0 mm 3 mps 772 mmHg 88%
    07:00 +8°C° 0 mm 3 mps 772 mmHg 84%
    08:00 +9°C° 0 mm 3 mps 772 mmHg 80%
    09:00 +10°C° 0 mm 4 mps 772 mmHg 76%
    10:00 +11°C° 0 mm 4 mps 771 mmHg 70%
    11:00 +12°C° 0 mm 4 mps 771 mmHg 65%
    12:00 +13°C° 0 mm 4 mps 771 mmHg 60%
    13:00 +13°C° 0 mm 4 mps 770 mmHg 60%
    14:00 +13°C° 0 mm 4 mps 770 mmHg 60%
    15:00 +13°C° 0 mm 4 mps 769 mmHg 61%
    16:00 +12°C° 0 mm 4 mps 769 mmHg 66%
    17:00 +11°C° 0 mm 4 mps 769 mmHg 72%
    18:00 +8°C° 0 mm 4 mps 769 mmHg 78%
    19:00 +8°C° 0 mm 4 mps 769 mmHg 79%
    20:00 +8°C° 0 mm 4 mps 769 mmHg 81%
    21:00 +8°C° 0 mm 4 mps 769 mmHg 82%
    22:00 +8°C° 0 mm 3 mps 769 mmHg 84%
    23:00 +8°C° 0 mm 3 mps 769 mmHg 86%
    Show more